Home   Weather   Papeete   Past weeks
Flag for French Polynesia

Past Weather in Papeete, Tahiti, French Polynesia — January 2018

Now
77 °F

Warm.


Feels Like: 79 °F
Forecast: 86 / 77 °F
Wind: 3 mph from Southeast

Location: Tahiti-Faaa

Current Time: Jan 19, 2020 at 5:53:00 am

Latest Report: Jan 19, 2020 at 5:00 am


Visibility: N/A

Pressure: 29.92 "Hg

Humidity: 79%

Dew Point: 70 °F

Location of PapeeteLocation

January 2018 Weather in Papeete — Graph

°F

High & Low Weather Summary for January 2018

 TemperatureHumidityPressure
High91 °F (Jan 22, 3:00 pm)94% (Jan 4, 4:30 am)29.98 "Hg (Jan 4, 4:30 am)
Low75 °F (Jan 4, 4:30 am)48% (Jan 28, 9:30 pm)29.68 "Hg (Jan 4, 3:30 pm)
Average82 °F74%29.85 "Hg
* Reported Jan 1 12:00 am — Jan 31 11:30 pm, Papeete. Weather by CustomWeather, © 2020

Note: Actual official high and low records may vary slightly from our data, if they occured in-between our weather recording intervals... More about our weather records

Papeete Weather History for January 1, 2018

Scroll right to see more
 ConditionsComfort  
Time TempWeatherWind HumidityBarometerVisibility
12:00 am
Mon, Jan 1
79 °FPassing clouds.2 mph74%29.92 "HgN/A
12:30 am79 °FPassing clouds.3 mph74%29.92 "HgN/A
1:00 am79 °FPassing clouds.2 mph74%29.89 "HgN/A
1:30 am79 °FPassing clouds.5 mph74%29.89 "HgN/A
2:00 am79 °FPassing clouds.5 mph74%29.86 "HgN/A
2:30 am79 °FPassing clouds.2 mph74%29.86 "HgN/A
3:00 am77 °FPassing clouds.3 mph74%29.86 "HgN/A
3:30 am77 °FWarm.2 mph79%29.86 "HgN/A
4:30 am77 °FWarm.1 mph79%29.89 "HgN/A
5:00 am77 °FWarm.3 mph74%29.89 "HgN/A
5:30 am77 °FWarm.3 mph74%29.89 "HgN/A
6:00 am77 °FPartly sunny.3 mph74%29.92 "HgN/A
6:30 am79 °FPartly sunny.2 mph74%29.92 "HgN/A
7:00 am81 °FPartly sunny.2 mph70%29.92 "HgN/A
7:30 am84 °FPartly sunny.3 mph66%29.92 "HgN/A
8:00 am86 °FPartly sunny.2 mph59%29.95 "HgN/A
8:30 am88 °FPartly sunny.2 mph59%29.95 "HgN/A
9:00 am88 °FScattered clouds.7 mph62%29.95 "HgN/A
9:30 am88 °FScattered clouds.8 mph59%29.95 "HgN/A
10:00 am88 °FScattered clouds.13 mph62%29.92 "HgN/A
10:30 am88 °FScattered clouds.13 mph66%29.92 "HgN/A
11:00 am88 °FScattered clouds.12 mph62%29.92 "HgN/A
11:30 am88 °FScattered clouds.10 mph62%29.92 "HgN/A
12:00 pm88 °FScattered clouds.10 mph66%29.92 "HgN/A
12:30 pm88 °FScattered showers. Scattered clouds.9 mph62%29.89 "HgN/A
1:00 pm88 °FScattered showers. Scattered clouds.10 mph62%29.89 "HgN/A
1:30 pm88 °FScattered showers. Scattered clouds.12 mph62%29.89 "HgN/A
2:00 pm90 °FScattered showers. Scattered clouds.10 mph59%29.86 "HgN/A
2:30 pm88 °FScattered clouds.8 mph62%29.86 "HgN/A
3:00 pm88 °FScattered clouds.10 mph62%29.86 "HgN/A
3:30 pm86 °FRain. Broken clouds.6 mph66%29.86 "HgN/A
3:51 pm82 °FSprinkles. Broken clouds.9 mph79%29.86 "HgN/A
4:30 pm81 °FBroken clouds.6 mph84%29.86 "HgN/A
5:00 pm82 °FBroken clouds.6 mph79%29.86 "HgN/A
5:30 pm84 °FPartly sunny.3 mph70%29.89 "HgN/A
6:00 pm84 °FPartly sunny.5 mph70%29.89 "HgN/A
6:30 pm82 °FPartly sunny.3 mph79%29.89 "HgN/A
7:00 pm82 °FScattered showers. Passing clouds.2 mph79%29.89 "HgN/A
7:30 pm82 °FScattered showers. Passing clouds.6 mph79%29.92 "HgN/A
8:00 pm82 °FPassing clouds.10 mph79%29.92 "HgN/A
8:30 pm81 °FPassing clouds.3 mph79%29.92 "HgN/A
9:00 pm81 °FPassing clouds.3 mph84%29.95 "HgN/A
9:30 pm79 °FPassing clouds.3 mph89%29.95 "HgN/A
10:00 pm79 °FPassing clouds.3 mph89%29.95 "HgN/A
10:30 pm79 °FPassing clouds.5 mph84%29.95 "HgN/A
11:00 pm79 °FPassing clouds.3 mph84%29.95 "HgN/A
11:30 pm79 °FPassing clouds.2 mph84%29.92 "HgN/A
Weather by CustomWeather, © 2020

See weather overview

Advertising